Powrót do katalogu

COSMOS 397 DEB

AktywnyLEO
NORAD 5280·DEBRIS·🇷🇺 Russia

Wystrzelony Feb 25, 1971 z Baikonur Cosmodrome

Loading…

Następne Przeloty (najbliższe 24 godziny)

TLE

ŚwieżeSource: Space-Track

Epoka: Sep 14, 2026, 08:45 UTC

1 05280U 71015BF  26257.36516836  .00001368  00000-0  46310-3 0  9994
2 05280  65.6579  24.7158 0739282 258.3312  93.3932 13.43950885655198

Śledź COSMOS 397 DEB w czasie rzeczywistym z AllMySat

Download on the App Store